• Em Portugal
  • Lista de países
  • Para 7 dias
  • Temperatura da água
  • Mapas de satélite
  • Mapa do tempo
  • Widgets de tempo
  • user-avatar
    Iniciar Sessão

    Previsão horária em Ordino

    Hoje, 23 Abril, Segunda-feira

    Tempo Temperatura Precipitação Vento Pressão Humidade
    00:00 +9°C° 0 mm 1 m/s 635 mmHg 76%
    01:00 +9°C° 0 mm 1 m/s 635 mmHg 74%
    02:00 +8°C° 0 mm 1 m/s 634 mmHg 73%
    03:00 +8°C° 0 mm 1 m/s 634 mmHg 71%
    04:00 +8°C° 0 mm 1 m/s 634 mmHg 71%
    05:00 +8°C° 0 mm 1 m/s 635 mmHg 70%
    06:00 +9°C° 0 mm 1 m/s 635 mmHg 69%
    07:00 +11°C° 0 mm 1 m/s 636 mmHg 62%
    08:00 +13°C° 0 mm 1 m/s 637 mmHg 55%
    09:00 +16°C° 0 mm 1 m/s 638 mmHg 48%
    10:00 +16°C° 0 mm 2 m/s 638 mmHg 48%
    11:00 +17°C° 0 mm 2 m/s 638 mmHg 48%
    12:00 +18°C° 0 mm 2 m/s 639 mmHg 48%
    13:00 +17°C° 0,3 mm 2 m/s 638 mmHg 51%
    14:00 +17°C° 0,3 mm 2 m/s 638 mmHg 53%
    15:00 +17°C° 0,3 mm 2 m/s 638 mmHg 56%
    16:00 +15°C° 0,4 mm 1 m/s 637 mmHg 63%
    17:00 +14°C° 0,4 mm 1 m/s 637 mmHg 69%
    18:00 +13°C° 0,4 mm 1 m/s 636 mmHg 75%
    19:00 +12°C° 0,2 mm 1 m/s 636 mmHg 77%
    20:00 +11°C° 0,2 mm 1 m/s 636 mmHg 79%
    21:00 +9°C° 0,2 mm 0 m/s 636 mmHg 81%
    22:00 +10°C° 0 mm 1 m/s 636 mmHg 80%
    23:00 +9°C° 0 mm 1 m/s 636 mmHg 80%

    Amanhã, 24 Abril, Terça-feira

    Tempo Temperatura Precipitação Vento Pressão Humidade
    00:00 +9°C° 0 mm 1 m/s 635 mmHg 80%
    01:00 +9°C° 0 mm 1 m/s 635 mmHg 80%
    02:00 +9°C° 0 mm 1 m/s 635 mmHg 79%
    03:00 +9°C° 0 mm 1 m/s 635 mmHg 79%
    04:00 +9°C° 0 mm 1 m/s 635 mmHg 77%
    05:00 +9°C° 0 mm 1 m/s 635 mmHg 76%
    06:00 +9°C° 0 mm 1 m/s 635 mmHg 74%
    07:00 +12°C° 0 mm 1 m/s 636 mmHg 66%
    08:00 +14°C° 0 mm 1 m/s 637 mmHg 58%
    09:00 +18°C° 0 mm 1 m/s 638 mmHg 49%
    10:00 +18°C° 0 mm 1 m/s 638 mmHg 47%
    11:00 +18°C° 0 mm 2 m/s 639 mmHg 44%
    12:00 +19°C° 0 mm 2 m/s 639 mmHg 42%
    13:00 +19°C° 0,2 mm 2 m/s 638 mmHg 43%
    14:00 +19°C° 0,2 mm 2 m/s 638 mmHg 44%
    15:00 +19°C° 0,2 mm 2 m/s 638 mmHg 45%
    16:00 +17°C° 0,2 mm 2 m/s 637 mmHg 52%
    17:00 +16°C° 0,2 mm 1 m/s 637 mmHg 59%
    18:00 +14°C° 0,2 mm 1 m/s 636 mmHg 67%
    19:00 +13°C° 0 mm 1 m/s 636 mmHg 68%
    20:00 +12°C° 0 mm 1 m/s 636 mmHg 69%
    21:00 +11°C° 0 mm 1 m/s 636 mmHg 71%
    22:00 +10°C° 0 mm 1 m/s 635 mmHg 71%
    23:00 +10°C° 0 mm 1 m/s 635 mmHg 71%

    Depois de amanhã, 25 Abril, Quarta-feira

    Tempo Temperatura Precipitação Vento Pressão Humidade
    00:00 +9°C° 0 mm 1 m/s 635 mmHg 71%
    01:00 +9°C° 0 mm 1 m/s 635 mmHg 69%
    02:00 +9°C° 0 mm 1 m/s 634 mmHg 67%
    03:00 +9°C° 0 mm 1 m/s 634 mmHg 66%
    04:00 +9°C° 0 mm 1 m/s 634 mmHg 65%
    05:00 +9°C° 0 mm 1 m/s 635 mmHg 64%
    06:00 +10°C° 0 mm 1 m/s 635 mmHg 64%
    07:00 +12°C° 0 mm 1 m/s 636 mmHg 59%
    08:00 +14°C° 0 mm 1 m/s 637 mmHg 54%
    09:00 +16°C° 0 mm 1 m/s 638 mmHg 49%
    10:00 +18°C° 0,1 mm 1 m/s 638 mmHg 50%
    11:00 +18°C° 0,1 mm 1 m/s 638 mmHg 50%
    12:00 +18°C° 0,1 mm 1 m/s 638 mmHg 50%
    13:00 +18°C° 0,3 mm 1 m/s 638 mmHg 54%
    14:00 +16°C° 0,3 mm 1 m/s 637 mmHg 58%
    15:00 +16°C° 0,3 mm 1 m/s 637 mmHg 62%
    16:00 +15°C° 0,5 mm 1 m/s 636 mmHg 66%
    17:00 +14°C° 0,5 mm 1 m/s 636 mmHg 71%
    18:00 +13°C° 0,5 mm 1 m/s 636 mmHg 76%
    19:00 +12°C° 0,2 mm 1 m/s 636 mmHg 79%
    20:00 +11°C° 0,2 mm 1 m/s 636 mmHg 82%
    21:00 +10°C° 0,2 mm 1 m/s 636 mmHg 85%
    22:00 +9°C° 0,1 mm 2 m/s 636 mmHg 87%
    23:00 +9°C° 0,1 mm 2 m/s 635 mmHg 88%

    26 Abril, Quinta-feira

    Tempo Temperatura Precipitação Vento Pressão Humidade
    00:00 +8°C° 0,1 mm 2 m/s 635 mmHg 90%
    01:00 +8°C° 0,1 mm 2 m/s 635 mmHg 91%
    02:00 +8°C° 0,1 mm 2 m/s 635 mmHg 91%
    03:00 +8°C° 0,1 mm 2 m/s 634 mmHg 91%
    04:00 +8°C° 0,1 mm 2 m/s 634 mmHg 91%
    05:00 +8°C° 0,1 mm 2 m/s 634 mmHg 90%
    06:00 +8°C° 0,1 mm 2 m/s 634 mmHg 90%
    07:00 +9°C° 0,1 mm 2 m/s 635 mmHg 85%
    08:00 +10°C° 0,1 mm 2 m/s 635 mmHg 81%
    09:00 +12°C° 0,1 mm 2 m/s 635 mmHg 76%
    10:00 +12°C° 0,1 mm 2 m/s 635 mmHg 74%
    11:00 +13°C° 0,1 mm 2 m/s 635 mmHg 71%
    12:00 +13°C° 0,1 mm 2 m/s 635 mmHg 68%
    13:00 +13°C° 0,3 mm 2 m/s 635 mmHg 69%
    14:00 +13°C° 0,3 mm 2 m/s 634 mmHg 69%
    15:00 +13°C° 0,3 mm 2 m/s 634 mmHg 69%
    16:00 +12°C° 0,4 mm 2 m/s 633 mmHg 74%
    17:00 +12°C° 0,4 mm 2 m/s 633 mmHg 79%
    18:00 +11°C° 0,4 mm 1 m/s 633 mmHg 83%
    19:00 +10°C° 0,1 mm 1 m/s 632 mmHg 86%
    20:00 +9°C° 0,1 mm 1 m/s 632 mmHg 89%
    21:00 +8°C° 0,1 mm 1 m/s 632 mmHg 91%
    22:00 +7°C° 0 mm 1 m/s 632 mmHg 91%
    23:00 +7°C° 0 mm 1 m/s 631 mmHg 91%

    27 Abril, Sexta-feira

    Tempo Temperatura Precipitação Vento Pressão Humidade
    00:00 +6°C° 0 mm 1 m/s 631 mmHg 90%
    01:00 +6°C° 0 mm 1 m/s 630 mmHg 90%
    02:00 +6°C° 0 mm 1 m/s 630 mmHg 90%
    03:00 +5°C° 0 mm 0 m/s 629 mmHg 90%
    04:00 +5°C° 0 mm 0 m/s 629 mmHg 89%
    05:00 +7°C° 0 mm 1 m/s 630 mmHg 88%
    06:00 +7°C° 0 mm 1 m/s 630 mmHg 87%
    07:00 +9°C° 0 mm 1 m/s 630 mmHg 80%
    08:00 +11°C° 0 mm 1 m/s 631 mmHg 73%
    09:00 +13°C° 0 mm 2 m/s 631 mmHg 65%
    10:00 +14°C° 0,1 mm 2 m/s 631 mmHg 63%
    11:00 +14°C° 0,1 mm 2 m/s 631 mmHg 62%
    12:00 +14°C° 0,1 mm 3 m/s 631 mmHg 60%
    13:00 +14°C° 0,5 mm 3 m/s 631 mmHg 63%
    14:00 +13°C° 0,5 mm 3 m/s 630 mmHg 65%
    15:00 +14°C° 0,5 mm 2 m/s 630 mmHg 68%
    16:00 +13°C° 0,5 mm 2 m/s 629 mmHg 73%
    17:00 +12°C° 0,5 mm 2 m/s 629 mmHg 79%
    18:00 +10°C° 0,5 mm 2 m/s 629 mmHg 85%
    19:00 +9°C° 0,5 mm 2 m/s 628 mmHg 87%
    20:00 +8°C° 0,5 mm 2 m/s 628 mmHg 90%
    21:00 +7°C° 0,5 mm 2 m/s 628 mmHg 93%
    22:00 +7°C° 0,7 mm 2 m/s 628 mmHg 93%
    23:00 +7°C° 0,7 mm 2 m/s 627 mmHg 93%

    28 Abril, Sábado

    Tempo Temperatura Precipitação Vento Pressão Humidade
    00:00 +6°C° 0,7 mm 2 m/s 627 mmHg 93%
    01:00 +6°C° 0,2 mm 2 m/s 626 mmHg 93%
    02:00 +6°C° 0,2 mm 2 m/s 626 mmHg 93%
    03:00 +6°C° 0,2 mm 2 m/s 625 mmHg 93%
    04:00 +6°C° 0 mm 2 m/s 625 mmHg 92%
    05:00 +6°C° 0 mm 2 m/s 625 mmHg 92%
    06:00 +6°C° 0 mm 2 m/s 625 mmHg 91%
    07:00 +8°C° 0 mm 2 m/s 626 mmHg 83%
    08:00 +9°C° 0 mm 2 m/s 626 mmHg 76%
    09:00 +10°C° 0 mm 3 m/s 627 mmHg 69%
    10:00 +10°C° 0,2 mm 3 m/s 627 mmHg 65%
    11:00 +11°C° 0,2 mm 3 m/s 628 mmHg 62%
    12:00 +11°C° 0,2 mm 4 m/s 628 mmHg 58%
    13:00 +11°C° 0,1 mm 4 m/s 628 mmHg 58%
    14:00 +10°C° 0,1 mm 4 m/s 628 mmHg 58%
    15:00 +9°C° 0,1 mm 3 m/s 628 mmHg 58%
    16:00 +8°C° 0,1 mm 3 m/s 628 mmHg 64%
    17:00 +5°C° 0,1 mm 3 m/s 628 mmHg 71%
    18:00 +5°C° 0,1 mm 2 m/s 628 mmHg 77%
    19:00 +4°C° 0,2 mm 2 m/s 628 mmHg 80%
    20:00 +3°C° 0,2 mm 2 m/s 628 mmHg 84%
    21:00 +2°C° 0,2 mm 2 m/s 628 mmHg 88%
    22:00 +1°C° 0 mm 2 m/s 628 mmHg 87%
    23:00 +1°C° 0 mm 2 m/s 628 mmHg 87%
    Mostrar mais